Regional Weather Roundup
Issued by NWS

Home | Current Version | Previous Version | Text Only | Print | Product List | Glossary On
Versions: 1 2 3 4 5 6 7 8 9 10 11 12 13 14 15 16 17 18 19 20 21 22 23 24 25 26 27 28 29 30 31 32 33 34 35 36 37 38 39 40 41 42 43 44 45 46 47 48 49 50
000
ASUS43 KLMK 231902
RWRKY
KENTUCKY REGIONAL WEATHER ROUNDUP
NATIONAL WEATHER SERVICE LOUISVILLE KY
300 PM EDT SAT SEP 23 2017

NOTE "FAIR" INDICATES FEW OR NO CLOUDS BELOW 12,000 FEET
WITH NO SIGNIFICANT WEATHER AND/OR OBSTRUCTIONS TO VISIBILITY.

KYZ001>023-026-027-061>063-070>075-232000-
WESTERN AND SOUTH CENTRAL KENTUCKY

CITY           SKY/WX    TMP DP  RH WIND       PRES   REMARKS
PADUCAH        SUNNY     90  64  42 SE7       30.02F HX  91
HENDERSON      SUNNY     89  62  40 VRB5      30.05F
OWENSBORO      SUNNY     88  63  43 NE5       30.05F
HOPKINSVILLE   NOT AVBL
BOWLING GREEN  MOSUNNY   89  69  51 N6        30.05F HX  93
GLASGOW        MOSUNNY   88  65  45 N5        30.06F HX  90
$$

KYZ024-025-028>034-038-045-046-053-232000-
NORTH CENTRAL KENTUCKY

CITY           SKY/WX    TMP DP  RH WIND       PRES   REMARKS
LOUISVILLE/SDF MOSUNNY   89  64  43 SE10      30.06F HX  90
LOUISVILLE/LOU SUNNY     88  66  48 SE7       30.07F HX  90
FORT KNOX      NOT AVBL
$$

KYZ035>037-039>044-047>052-055>060-089>105-232000-
NORTHEAST KENTUCKY

CITY           SKY/WX    TMP DP  RH WIND       PRES   REMARKS
LEXINGTON      SUNNY     87  63  44 NE8       30.10F
COVINGTON      MOSUNNY   89  63  41 E7        30.10F HX  90
FRANKFORT      SUNNY     89  60  37 NE5       30.08F
$$

KYZ054-064>069-076>088-106>120-232000-
SOUTHEAST KENTUCKY

CITY           SKY/WX    TMP DP  RH WIND       PRES   REMARKS
JACKSON        SUNNY     84  62  47 CALM      30.11F
LONDON         SUNNY     86  62  44 NE7       30.09F
SOMERSET       NOT AVBL
MIDDLESBORO    MOSUNNY   87  67  50 N9        30.08F HX  90
MONTICELLO     CLEAR     86  67  52 VRB5G17   30.09F
$$





USA.gov is the U.S. government's official web portal to all federal, state and local government web resources and services.